Location: Killam
(52.7910°N, 111.8608°W)
Time: 20:42:09
(UTC+00:00)

CAS-6 - Visible Passes

Search period start: 16 March 2026 00:00
Search period end: 26 March 2026 00:00
Orbit: 599 x 619 km, 97.8° (Epoch: 16 March)

Date Brightness Start Highest point End Pass type
(mag) Time Alt. Az. Time Alt. Az. Time Alt. Az.
16 Mar ? 03:50:10 18° NE 03:50:10 18° NE 03:52:19 10° NNE visible
16 Mar ? 05:27:06 26° NNW 05:27:06 26° NNW 05:29:03 10° NNW visible
17 Mar ? 04:04:10 22° NE 04:04:10 22° NE 04:06:34 10° N visible
17 Mar ? 05:41:06 24° NW 05:41:06 24° NW 05:42:57 10° NNW visible
18 Mar ? 04:18:10 26° NE 04:18:10 26° NE 04:20:44 10° N visible
18 Mar ? 05:55:06 21° NW 05:55:06 21° NW 05:56:47 10° NNW visible
19 Mar ? 04:32:09 31° NNE 04:32:09 31° NNE 04:34:51 10° N visible
19 Mar ? 06:09:06 18° NW 06:09:06 18° NW 06:10:32 10° NW visible
20 Mar ? 04:46:09 36° NNE 04:46:09 36° NNE 04:48:54 10° N visible
20 Mar ? 06:23:05 15° NW 06:23:05 15° NW 06:24:12 10° NW visible
21 Mar ? 03:23:13 12° ENE 03:23:30 12° NE 03:25:14 10° NNE visible
21 Mar ? 05:00:09 39° N 05:00:09 39° N 05:02:55 10° N visible
21 Mar ? 06:37:05 12° WNW 06:37:05 12° WNW 06:37:41 10° NW visible
22 Mar ? 03:37:12 16° ENE 03:37:16 16° NE 03:39:48 10° NNE visible
22 Mar ? 05:14:08 39° NNW 05:14:08 39° NNW 05:16:54 10° NNW visible
23 Mar ? 03:51:12 20° NE 03:51:12 20° NE 03:54:08 10° NNE visible
23 Mar ? 05:28:07 36° NW 05:28:07 36° NW 05:30:49 10° NNW visible
24 Mar ? 04:05:11 25° NE 04:05:11 25° NE 04:08:21 10° N visible
24 Mar ? 05:42:07 32° NW 05:42:07 32° NW 05:44:42 10° NNW visible
25 Mar ? 04:19:10 31° NE 04:19:10 31° NE 04:22:30 10° N visible
25 Mar ? 05:56:06 26° NW 05:56:06 26° NW 05:58:30 10° NNW visible
